"Timestamp","TZ","WindDir_Mean (deg)","WindSpd_Mean (km/h)","WindSpd_Min (km/h)","WindSpd_Max (km/h)","Temp_Mean (deg)","RH_Mean (%)","MSLP_Mean (hPa)","Rain_Acc (mm)","Rain_Intensity (mm/h)","Hail_Acc (hits/cm2)","Hail_Intensity (hits/cm2hr)","Solar_Mean (W/m2)"
2020/06/20 00:00:00.010,n,274,3.6,3.24,3.96,14,81.1,1027.72,0,0,0,0,0.039215
2020/06/20 00:01:00.000,n,265,3.24,2.52,3.6,14,81,1027.72,0,0,0,0,0.041809
2020/06/20 00:02:00.003,n,196,0.36,0.36,0.72,14,81,1027.72,0,0,0,0,0.041809
2020/06/20 00:03:00.000,n,260,3.96,3.24,4.32,14.1,80.8,1027.72,0,0,0,0,0.044441
2020/06/20 00:04:00.000,n,269,3.24,2.52,3.96,14.1,80.8,1027.62,0,0,0,0,0.040932
2020/06/20 00:05:00.000,n,203,1.44,1.08,1.44,14.1,80.9,1027.72,0,0,0,0,0.043564
2020/06/20 00:06:00.008,n,231,1.8,1.44,2.52,14.1,80.6,1027.72,0,0,0,0,0.039215
2020/06/20 00:07:00.005,n,42,2.16,1.08,3.24,14.1,80.7,1027.62,0,0,0,0,0.046158
2020/06/20 00:08:00.003,n,302,0.36,0,0.36,14.2,80.7,1027.62,0,0,0,0,0.046158
2020/06/20 00:09:00.001,n,148,0.36,0,0.36,14.2,80.3,1027.62,0,0,0,0,0.047035
2020/06/20 00:10:00.000,n,263,0.36,0,0.72,14.2,80.1,1027.62,0,0,0,0,0.04879
2020/06/20 00:11:00.000,n,205,0.36,0,0.72,14.2,80.2,1027.62,0,0,0,0,0.047913
2020/06/20 00:12:00.000,n,288,2.16,1.8,2.52,14.2,80.1,1027.62,0,0,0,0,0.050507
2020/06/20 00:13:00.007,n,248,1.8,1.44,1.8,14.2,80,1027.72,0,0,0,0,0.022621
2020/06/20 00:14:00.002,n,99,0.72,0.36,1.08,14.2,80.1,1027.72,0,0,0,0,0.027847
2020/06/20 00:15:00.000,n,171,1.8,1.44,2.16,14.2,80,1027.72,0,0,0,0,0.02697
2020/06/20 00:16:00.000,n,158,0.72,0.36,1.44,14.2,79.8,1027.72,0,0,0,0,0.024338
2020/06/20 00:17:00.009,n,57,0.36,0,0.72,14.2,79.8,1027.72,0,0,0,0,0.033073
2020/06/20 00:18:00.007,n,93,1.44,0.72,1.44,14.2,79.8,1027.62,0,0,0,0,0.025253
2020/06/20 00:19:00.000,n,170,1.08,0.36,1.08,14.2,79.7,1027.62,0,0,0,0,0.028687
2020/06/20 00:20:00.000,n,104,1.08,0.72,1.08,14.2,79.7,1027.62,0,0,0,0,0.028687
2020/06/20 00:21:00.000,n,186,1.44,0.72,1.8,14.2,79.7,1027.62,0,0,0,0,0.031319
2020/06/20 00:22:00.000,n,138,0.72,0.72,1.8,14.2,79.7,1027.62,0,0,0,0,0.02697
2020/06/20 00:23:00.008,n,273,1.8,1.08,2.16,14.2,79.8,1027.62,0,0,0,0,0.030479
2020/06/20 00:24:00.005,n,208,0.36,0,0.72,14.2,79.8,1027.62,0,0,0,0,0.029602
2020/06/20 00:25:00.003,n,230,1.44,1.08,1.44,14.2,79.7,1027.62,0,0,0,0,0.029602
2020/06/20 00:26:00.000,n,257,2.52,2.16,2.88,14.2,79.7,1027.62,0,0,0,0,0.028687
2020/06/20 00:27:00.014,n,261,3.96,3.24,4.68,14.2,79.8,1027.62,0,0,0,0,0.029602
2020/06/20 00:28:00.000,n,242,2.16,1.44,2.52,14.2,79.7,1027.62,0,0,0,0,0.029602
2020/06/20 00:29:00.000,n,270,2.52,2.16,2.52,14.2,79.8,1027.62,0,0,0,0,0.033073
2020/06/20 00:30:00.000,n,255,4.68,4.32,4.68,14.2,79.6,1027.62,0,0,0,0,0.029602
2020/06/20 00:31:00.000,n,264,3.96,3.24,4.68,14.1,79.7,1027.62,0,0,0,0,0.033951
2020/06/20 00:32:00.008,n,248,3.96,3.6,4.32,14.1,79.6,1027.62,0,0,0,0,0.032196
2020/06/20 00:33:00.005,n,261,4.68,4.32,5.04,14.1,79.6,1027.62,0,0,0,0,0.032196
2020/06/20 00:34:00.004,n,250,3.6,3.24,3.96,14.1,79.6,1027.62,0,0,0,0,0.030479
2020/06/20 00:35:00.000,n,271,3.96,3.24,4.68,14.1,80,1027.62,0,0,0,0,0.030479
2020/06/20 00:36:00.013,n,247,1.44,1.08,1.8,14.1,79.9,1027.62,0,0,0,0,0.02697
2020/06/20 00:37:00.000,n,273,1.8,1.08,1.8,14.1,79.8,1027.62,0,0,0,0,0.030479
2020/06/20 00:38:00.000,n,257,0.72,0.36,1.08,14.1,79.7,1027.62,0,0,0,0,0.02697
2020/06/20 00:39:00.006,n,269,0.36,0,0.72,14.1,80,1027.62,0,0,0,0,0.032196
2020/06/20 00:40:00.003,n,248,1.08,0.36,1.44,14.1,80,1027.62,0,0,0,0,0.02697
2020/06/20 00:41:00.000,n,167,0.72,0.36,1.8,14.1,80,1027.62,0,0,0,0,0.030479
2020/06/20 00:42:00.000,n,27,2.16,1.08,2.52,14.1,80.2,1027.62,0,0,0,0,0.02697
2020/06/20 00:43:00.010,n,100,1.08,0.72,1.44,14.1,80.1,1027.62,0,0,0,0,0.030479
2020/06/20 00:44:00.007,n,239,1.8,1.44,2.52,14.1,80,1027.62,0,0,0,0,0.028687
2020/06/20 00:45:00.003,n,339,2.16,1.8,2.16,14.1,80.3,1027.62,0,0,0,0,0.028687
2020/06/20 00:46:00.001,n,202,1.44,1.08,2.16,14.1,80.2,1027.62,0,0,0,0,0.022621
2020/06/20 00:47:00.000,n,259,1.8,1.44,2.88,14.1,80,1027.62,0,0,0,0,0.027847
2020/06/20 00:48:00.000,n,251,3.6,3.6,3.96,14,79.9,1027.62,0,0,0,0,0.027847
2020/06/20 00:49:00.000,n,278,3.24,2.16,4.32,14,79.9,1027.62,0,0,0,0,0.027847
2020/06/20 00:50:00.006,n,129,1.08,0.72,1.8,14,80.3,1027.62,0,0,0,0,0.025253
2020/06/20 00:51:00.003,n,42,1.08,0.36,1.8,14,80.2,1027.62,0,0,0,0,0.027847
2020/06/20 00:52:00.000,n,71,2.16,1.08,2.88,14,80.4,1027.62,0,0,0,0,0.027847
2020/06/20 00:53:00.014,n,130,1.44,0.72,1.44,14,80.2,1027.72,0,0,0,0,0.026093
2020/06/20 00:54:00.012,n,142,4.68,4.32,5.04,14,80.2,1027.72,0,0,0,0,0.02697
2020/06/20 00:55:00.000,n,111,2.16,1.44,2.52,14,80.2,1027.72,0,0,0,0,0.027847
2020/06/20 00:56:00.000,n,173,1.8,1.8,1.8,14,80.2,1027.72,0,0,0,0,0.02697
2020/06/20 00:57:00.003,n,237,3.24,2.52,3.6,14,80.3,1027.72,0,0,0,0,0.027847
2020/06/20 00:58:00.003,n,192,1.44,1.08,1.8,14,80.3,1027.72,0,0,0,0,0.026093
2020/06/20 00:59:00.000,n,92,1.08,0.72,2.52,14,80.3,1027.72,0,0,0,0,0.023499
2020/06/20 01:00:00.000,n,226,1.44,0.36,1.8,14,80.4,1027.72,0,0,0,0,0.025253
2020/06/20 01:01:00.010,n,267,2.52,2.16,3.24,14,80.5,1027.72,0,0,0,0,0.023499
2020/06/20 01:02:00.007,n,263,1.44,1.08,2.16,14,80.7,1027.72,0,0,0,0,0.023499
2020/06/20 01:03:00.004,n,125,1.44,0.72,1.8,14,80.3,1027.72,0,0,0,0,0.025253
2020/06/20 01:04:00.001,n,278,2.52,2.16,2.88,14,80.2,1027.72,0,0,0,0,0.018272
2020/06/20 01:05:00.000,n,255,2.16,2.16,2.52,14,80.2,1027.72,0,0,0,0,0.026093
2020/06/20 01:06:00.000,n,210,1.44,1.08,2.16,14,80.1,1027.72,0,0,0,0,0.021744
2020/06/20 01:07:00.000,n,234,0.36,0.36,0.72,14,80.2,1027.72,0,0,0,0,0.025253
2020/06/20 01:08:00.005,n,155,1.08,0.72,1.8,14,80.2,1027.72,0,0,0,0,0.026093
2020/06/20 01:09:00.002,n,286,1.8,0.72,2.52,14,80.1,1027.72,0,0,0,0,0.023499
2020/06/20 01:10:00.000,n,283,2.88,1.8,4.32,14,80,1027.72,0,0,0,0,0.026093
2020/06/20 01:11:00.012,n,125,1.8,1.08,2.88,14,80.1,1027.72,0,0,0,0,0.023499
2020/06/20 01:12:00.009,n,260,3.6,2.88,4.32,14,80.1,1027.72,0,0,0,0,0.026093
2020/06/20 01:13:00.000,n,254,3.6,2.88,4.32,14,80.3,1027.72,0,0,0,0,0.023499
2020/06/20 01:14:00.002,n,321,4.32,3.6,4.32,14.1,80.6,1027.72,0,0,0,0,0.02697
2020/06/20 01:15:00.000,n,298,1.8,1.08,2.16,14.1,80.3,1027.72,0,0,0,0,0.028687
2020/06/20 01:16:00.000,n,270,5.04,3.6,5.76,14.1,79.7,1027.62,0,0,0,0,0.02697
2020/06/20 01:17:00.000,n,235,1.8,0.72,2.52,14.1,79.7,1027.72,0,0,0,0,0.02697
2020/06/20 01:18:00.007,n,271,3.6,1.44,4.68,14,79.6,1027.72,0,0,0,0,0.020905
2020/06/20 01:19:00.005,n,310,2.88,2.16,3.6,14,79.6,1027.62,0,0,0,0,0.029602
2020/06/20 01:20:00.002,n,276,6.84,5.76,7.92,14,79.7,1027.62,0,0,0,0,0.033073
2020/06/20 01:21:00.015,n,274,4.32,3.96,5.4,13.9,79.7,1027.62,0,0,0,0,0.027847
2020/06/20 01:22:00.000,n,276,3.96,2.88,4.32,13.9,79.8,1027.62,0,0,0,0,0.026093
2020/06/20 01:23:00.000,n,249,4.68,3.6,6.12,13.9,79.9,1027.62,0,0,0,0,0.025253
2020/06/20 01:24:00.000,n,266,4.68,3.6,6.12,13.9,80,1027.52,0,0,0,0,0.02697
2020/06/20 01:25:00.003,n,268,6.12,5.76,7.56,13.9,80,1027.52,0,0,0,0,0.031319
2020/06/20 01:26:00.001,n,266,4.32,1.8,6.12,13.8,80.2,1027.52,0,0,0,0,0.024338
2020/06/20 01:27:00.000,n,265,8.64,6.84,10.8,13.8,80,1027.52,0,0,0,0,0.031319
2020/06/20 01:28:00.010,n,262,6.12,5.4,6.84,13.8,80,1027.52,0,0,0,0,0.026093
2020/06/20 01:29:00.009,n,254,7.56,6.12,10.08,13.8,80,1027.52,0,0,0,0,0.029602
2020/06/20 01:30:00.005,n,342,1.44,0.72,3.6,13.8,80,1027.52,0,0,0,0,0.027847
2020/06/20 01:31:00.000,n,257,1.8,1.08,2.16,13.7,80.2,1027.52,0,0,0,0,0.026093
2020/06/20 01:32:00.000,n,287,2.88,1.8,3.6,13.7,80.2,1027.52,0,0,0,0,0.026093
2020/06/20 01:33:00.000,n,251,3.96,2.52,5.4,13.7,80.2,1027.42,0,0,0,0,0.028687
2020/06/20 01:34:00.000,n,252,4.32,2.52,5.76,13.7,80.1,1027.42,0,0,0,0,0.026093
2020/06/20 01:35:00.007,n,178,1.44,0.72,3.6,13.7,80.3,1027.42,0,0,0,0,0.027847
2020/06/20 01:36:00.006,n,291,2.88,1.8,3.96,13.7,80.1,1027.42,0,0,0,0,0.023499
2020/06/20 01:37:00.003,n,126,1.08,0.72,2.16,13.7,80,1027.42,0,0,0,0,0.023499
2020/06/20 01:38:00.000,n,297,1.44,0.72,2.16,13.7,80,1027.42,0,0,0,0,0.022621
2020/06/20 01:39:00.012,n,272,4.32,3.24,5.76,13.7,80.1,1027.42,0,0,0,0,0.019989
2020/06/20 01:40:00.000,n,98,0.72,0.72,1.08,13.7,80,1027.42,0,0,0,0,0.035667
2020/06/20 01:41:00.002,n,251,1.8,1.44,2.88,13.7,80.1,1027.42,0,0,0,0,0.040932
2020/06/20 01:42:00.000,n,312,0.72,0.72,1.08,13.7,80.4,1027.42,0,0,0,0,0.040932
2020/06/20 01:43:00.000,n,186,0.36,0.36,0.72,13.7,80.3,1027.42,0,0,0,0,0.036583
2020/06/20 01:44:00.000,n,196,1.08,0.72,1.8,13.7,80.3,1027.42,0,0,0,0,0.0383
2020/06/20 01:45:00.008,n,112,2.52,0.72,3.6,13.7,80.4,1027.42,0,0,0,0,0.035667
2020/06/20 01:46:00.005,n,209,1.08,0.36,1.44,13.7,80.3,1027.42,0,0,0,0,0.033073
2020/06/20 01:47:00.002,n,203,2.52,1.8,2.88,13.7,80.3,1027.42,0,0,0,0,0.032234
2020/06/20 01:48:00.016,n,205,3.96,2.52,4.68,13.7,80.4,1027.42,0,0,0,0,0.032234
2020/06/20 01:49:00.000,n,344,3.6,2.16,4.32,13.7,80.7,1027.42,0,0,0,0,0.032234
2020/06/20 01:50:00.000,n,229,1.8,1.8,2.88,13.7,80.6,1027.42,0,0,0,0,0.033073
2020/06/20 01:51:00.000,n,157,5.76,4.68,7.2,13.7,80.6,1027.52,0,0,0,0,0.031319
2020/06/20 01:52:00.004,n,154,5.76,5.4,6.12,13.7,80.5,1027.52,0,0,0,0,0.033951
2020/06/20 01:53:00.002,n,167,6.12,5.04,6.48,13.7,80.6,1027.52,0,0,0,0,0.040054
2020/06/20 01:54:00.000,n,169,4.68,4.32,5.04,13.6,80.7,1027.52,0,0,0,0,0.034828
2020/06/20 01:55:00.012,n,264,3.24,2.52,4.32,13.6,81,1027.42,0,0,0,0,0.033951
2020/06/20 01:56:00.009,n,353,0.72,0.72,1.08,13.6,81.1,1027.42,0,0,0,0,0.031319
2020/06/20 01:57:00.006,n,99,1.44,0.72,1.8,13.6,81.1,1027.42,0,0,0,0,0.033073
2020/06/20 01:58:00.000,n,245,3.6,3.24,4.68,13.6,81,1027.42,0,0,0,0,0.030479
2020/06/20 01:59:00.000,n,316,1.08,0.36,1.44,13.6,81.4,1027.42,0,0,0,0,0.033073
2020/06/20 02:00:00.000,n,286,2.16,1.44,2.88,13.7,81.3,1027.42,0,0,0,0,0.031319
2020/06/20 02:01:00.000,n,263,2.88,1.44,4.32,13.7,81.6,1027.42,0,0,0,0,0.028725
2020/06/20 02:02:00.008,n,272,1.44,0.72,2.16,13.7,81.4,1027.42,0,0,0,0,0.030479
2020/06/20 02:03:00.006,n,198,1.08,1.08,1.44,13.7,81.4,1027.42,0,0,0,0,0.031319
2020/06/20 02:04:00.004,n,261,1.44,0.72,2.52,13.7,81.4,1027.42,0,0,0,0,0.031319
2020/06/20 02:05:00.001,n,226,1.8,0.72,3.24,13.7,81.5,1027.42,0,0,0,0,0.029602
2020/06/20 02:06:00.014,n,236,2.16,2.16,2.52,13.8,81.3,1027.42,0,0,0,0,0.031319
2020/06/20 02:07:00.000,n,294,2.16,1.8,2.52,13.7,81.1,1027.42,0,0,0,0,0.029602
2020/06/20 02:08:00.000,n,295,1.8,1.44,2.16,13.7,81.1,1027.42,0,0,0,0,0.032234
2020/06/20 02:09:00.000,n,248,1.08,0.72,1.44,13.7,81.1,1027.42,0,0,0,0,0.035667
2020/06/20 02:10:00.006,n,253,1.8,1.44,2.16,13.7,81.1,1027.42,0,0,0,0,0.033951
2020/06/20 02:11:00.004,n,189,0.36,0.36,0.36,13.7,81.3,1027.42,0,0,0,0,0.033073
2020/06/20 02:12:00.001,n,197,1.8,1.44,2.16,13.7,81.3,1027.52,0,0,0,0,0.033951
2020/06/20 02:13:00.000,n,142,2.16,1.44,3.24,13.7,81.3,1027.52,0,0,0,0,0.033073
2020/06/20 02:14:00.013,n,137,3.24,3.24,3.6,13.7,81.2,1027.52,0,0,0,0,0.039177
2020/06/20 02:15:00.010,n,129,3.6,3.24,4.68,13.7,81.2,1027.52,0,0,0,0,0.033073
2020/06/20 02:16:00.000,n,185,3.96,3.6,4.32,13.7,81.3,1027.42,0,0,0,0,0.0383
2020/06/20 02:17:00.000,n,165,4.32,3.6,5.04,13.7,81.4,1027.42,0,0,0,0,0.035667
2020/06/20 02:18:00.000,n,189,3.96,3.24,5.04,13.7,81.4,1027.42,0,0,0,0,0.035667
2020/06/20 02:19:00.000,n,179,3.96,3.96,4.32,13.7,81.5,1027.42,0,0,0,0,0.035667
2020/06/20 02:20:00.000,n,165,1.44,1.08,1.8,13.7,81.5,1027.42,0,0,0,0,0.036583
2020/06/20 02:21:00.008,n,163,4.32,3.96,4.68,13.7,81.5,1027.42,0,0,0,0,0.036583
2020/06/20 02:22:00.006,n,155,3.96,3.6,3.96,13.7,81.5,1027.42,0,0,0,0,0.03746
2020/06/20 02:23:00.003,n,138,2.88,1.8,3.96,13.7,81.8,1027.52,0,0,0,0,0.034828
2020/06/20 02:24:00.016,n,162,6.12,5.4,6.48,13.7,81.7,1027.52,0,0,0,0,0.036583
2020/06/20 02:25:00.000,n,137,3.6,3.24,3.6,13.7,81.8,1027.52,0,0,0,0,0.03746
2020/06/20 02:26:00.000,n,137,3.24,2.52,3.6,13.7,82,1027.52,0,0,0,0,0.04528
2020/06/20 02:27:00.000,n,160,2.52,2.16,2.88,13.7,82.1,1027.52,0,0,0,0,0.03746
2020/06/20 02:28:00.005,n,155,4.32,3.96,4.68,13.7,82.1,1027.52,0,0,0,0,0.039177
2020/06/20 02:29:00.002,n,138,2.88,0.72,3.96,13.6,82.3,1027.42,0,0,0,0,0.040054
2020/06/20 02:30:00.000,n,182,6.84,6.48,6.84,13.6,82.2,1027.42,0,0,0,0,0.034828
2020/06/20 02:31:00.012,n,197,2.52,1.08,5.76,13.6,82.4,1027.42,0,0,0,0,0.032234
2020/06/20 02:32:00.009,n,172,7.92,7.56,8.28,13.6,82.4,1027.42,0,0,0,0,0.0383
2020/06/20 02:33:00.006,n,187,7.92,7.56,8.64,13.6,82.5,1027.42,0,0,0,0,0.040054
2020/06/20 02:34:00.000,n,154,1.8,1.08,2.52,13.6,82.6,1027.42,0,0,0,0,0.035667
2020/06/20 02:35:00.000,n,178,8.28,6.48,10.08,13.6,82.5,1027.32,0,0,0,0,0.036583
2020/06/20 02:36:00.000,n,192,6.84,6.12,7.56,13.6,82.5,1027.32,0,0,0,0,0.03746
2020/06/20 02:37:00.000,n,186,9.72,8.64,10.440002,13.5,82.6,1027.32,0,0,0,0,0.039177
2020/06/20 02:38:00.008,n,173,9.36,8.64,10.8,13.5,82.6,1027.32,0,0,0,0,0.040054
2020/06/20 02:39:00.005,n,195,4.68,3.96,5.4,13.5,82.8,1027.32,0,0,0,0,0.035667
2020/06/20 02:40:00.002,n,175,5.76,3.96,6.12,13.6,83,1027.32,0,0,0,0,0.040054
2020/06/20 02:41:00.002,n,175,1.08,0.36,2.16,13.6,83.2,1027.32,0,0,0,0,0.039177
2020/06/20 02:42:00.015,n,209,3.96,3.6,4.32,13.6,83.3,1027.32,0,0,0,0,0.032234
2020/06/20 02:43:00.000,n,235,4.32,3.6,5.04,13.7,83.2,1027.32,0,0,0,0,0.0383
2020/06/20 02:44:00.000,n,257,0.36,0.36,0.72,13.7,83.4,1027.22,0,0,0,0,0.040054
2020/06/20 02:45:00.000,n,204,2.52,1.44,3.24,13.7,83.5,1027.22,0,0,0,0,0.033073
2020/06/20 02:46:00.000,n,255,2.88,2.52,3.96,13.7,83.4,1027.22,0,0,0,0,0.0383
2020/06/20 02:47:00.004,n,270,3.24,2.16,4.68,13.7,83.7,1027.22,0,0,0,0,0.034828
2020/06/20 02:48:00.003,n,259,5.4,4.68,5.76,13.7,83.5,1027.12,0,0,0,0,0.036583
2020/06/20 02:49:00.000,n,122,0.72,0.36,2.52,13.7,83.6,1027.12,0,0,0,0,0.034828
2020/06/20 02:50:00.013,n,279,5.4,5.04,6.12,13.7,83.6,1027.12,0,0,0,0,0.036583
2020/06/20 02:51:00.011,n,246,4.32,3.96,5.04,13.7,83.6,1027.12,0,0,0,0,0.033073
2020/06/20 02:52:00.000,n,260,5.4,3.6,6.48,13.7,83.5,1027.12,0,0,0,0,0.033951
2020/06/20 02:53:00.000,n,216,6.48,5.76,8.64,13.7,83.6,1027.02,0,0,0,0,0.032234
2020/06/20 02:54:00.004,n,271,3.24,2.52,4.32,13.7,83.8,1027.02,0,0,0,0,0.0383
2020/06/20 02:55:00.002,n,99,3.24,2.88,4.32,13.7,84.4,1027.02,0,0,0,0,0.031319
2020/06/20 02:56:00.000,n,330,1.44,0.36,2.16,13.7,84.3,1027.02,0,0,0,0,0.033073
2020/06/20 02:57:00.000,n,267,2.16,1.44,2.16,13.7,84.3,1027.12,0,0,0,0,0.033073
2020/06/20 02:58:00.010,n,222,5.04,3.96,5.76,13.7,84.1,1027.12,0,0,0,0,0.035667
2020/06/20 02:59:00.007,n,288,1.8,0.36,3.96,13.7,84,1027.12,0,0,0,0,0.034828
2020/06/20 03:00:00.004,n,166,3.6,3.24,4.32,13.7,84.1,1027.12,0,0,0,0,0.032234
2020/06/20 03:01:00.000,n,171,5.04,2.88,7.2,13.7,84.1,1027.12,0,0,0,0,0.033073
2020/06/20 03:02:00.001,n,212,1.44,0.72,2.52,13.7,84.3,1027.22,0,0,0,0,0.031319
2020/06/20 03:03:00.000,n,168,6.12,5.4,6.84,13.7,84.1,1027.22,0,0,0,0,0.036583
2020/06/20 03:04:00.000,n,142,5.76,2.16,8.64,13.6,84.1,1027.12,0,0,0,0,0.033073
2020/06/20 03:05:00.000,n,213,1.8,1.44,2.16,13.6,84.3,1027.22,0,0,0,0,0.033951
2020/06/20 03:06:00.007,n,187,9.36,8.64,10.440002,13.6,84.3,1027.12,0,0,0,0,0.031319
2020/06/20 03:07:00.006,n,253,5.4,4.32,5.76,13.6,84.3,1027.12,0,0,0,0,0.034828
2020/06/20 03:08:00.003,n,195,9,7.92,11.16,13.6,84.4,1027.12,0,0,0,0,0.035667
2020/06/20 03:09:00.000,n,251,3.6,1.8,5.04,13.6,84.4,1027.12,0,0,0,0,0.030479
2020/06/20 03:10:00.000,n,221,1.08,0.72,2.52,13.7,84.4,1027.12,0,0,0,0,0.033073
2020/06/20 03:11:00.000,n,337,1.08,0.72,1.8,13.7,84.6,1027.12,0,0,0,0,0.036583
2020/06/20 03:12:00.000,n,163,3.96,3.24,5.04,13.7,84.3,1027.02,0,0,0,0,0.033951
2020/06/20 03:13:00.007,n,169,1.8,0.72,3.24,13.7,84.5,1027.02,0,0,0,0,0.036583
2020/06/20 03:14:00.004,n,146,2.52,1.44,3.6,13.7,84.4,1027.02,0,0,0,0,0.032234
2020/06/20 03:15:00.001,n,120,2.16,1.44,2.52,13.7,84.4,1027.02,0,0,0,0,0.033951
2020/06/20 03:16:00.000,n,171,2.16,1.8,2.88,13.7,84.5,1027.02,0,0,0,0,0.031319
2020/06/20 03:17:00.013,n,70,0.72,0.36,1.44,13.7,84.6,1027.02,0,0,0,0,0.033951
2020/06/20 03:18:00.011,n,186,3.96,3.6,4.32,13.7,84.6,1027.02,0,0,0,0,0.027885
2020/06/20 03:19:00.000,n,191,3.24,2.88,3.6,13.7,84.3,1026.92,0,0,0,0,0.033951
2020/06/20 03:20:00.000,n,344,1.8,1.08,2.16,13.7,84.2,1026.92,0,0,0,0,0.033951
2020/06/20 03:21:00.003,n,209,2.52,1.44,3.24,13.7,84.3,1026.82,0,0,0,0,0.035667
2020/06/20 03:22:00.000,n,301,1.08,1.08,1.8,13.7,84.4,1026.82,0,0,0,0,0.034828
2020/06/20 03:23:00.000,n,64,1.8,1.44,2.52,13.7,84.6,1026.82,0,0,0,0,0.028725
2020/06/20 03:24:00.009,n,207,0.72,0.36,0.72,13.7,84.8,1026.82,0,0,0,0,0.030479
2020/06/20 03:25:00.008,n,212,3.6,2.88,3.96,13.7,84.2,1026.82,0,0,0,0,0.033951
2020/06/20 03:26:00.006,n,300,2.16,1.8,3.24,13.7,84,1026.82,0,0,0,0,0.033073
2020/06/20 03:27:00.002,n,142,5.4,3.6,6.48,13.6,84,1026.82,0,0,0,0,0.031319
2020/06/20 03:28:00.001,n,304,1.44,0.72,1.8,13.6,84.1,1026.72,0,0,0,0,0.02697
2020/06/20 03:29:00.000,n,278,1.08,0.72,1.8,13.6,84.1,1026.72,0,0,0,0,0.031319
2020/06/20 03:30:00.000,n,323,1.08,0.36,1.8,13.6,84.2,1026.72,0,0,0,0,0.031319
2020/06/20 03:31:00.000,n,249,3.96,3.6,4.32,13.6,84.1,1026.62,0,0,0,0,0.027885
2020/06/20 03:32:00.007,n,256,9,7.2,10.08,13.6,84,1026.62,0,0,0,0,0.031319
2020/06/20 03:33:00.004,n,263,2.16,1.44,2.88,13.5,84.1,1026.62,0,0,0,0,0.028725
2020/06/20 03:34:00.001,n,270,5.04,4.32,6.12,13.5,84.2,1026.52,0,0,0,0,0.033951
2020/06/20 03:35:00.014,n,180,6.12,5.4,6.48,13.5,84.3,1026.52,0,0,0,0,0.031319
2020/06/20 03:36:00.011,n,272,6.48,5.76,7.2,13.5,84.3,1026.52,0,0,0,0,0.032234
2020/06/20 03:37:00.000,n,258,3.24,2.88,3.24,13.5,84.6,1026.52,0,0,0,0,0.033073
2020/06/20 03:38:00.000,n,246,3.6,2.52,4.68,13.5,84.5,1026.52,0,0,0,0,0.029602
2020/06/20 03:39:00.002,n,169,1.44,1.08,1.8,13.5,84.5,1026.52,0,0,0,0,0.032234
2020/06/20 03:40:00.000,n,255,2.52,2.16,2.88,13.5,84.5,1026.52,0,0,0,0,0.029602
2020/06/20 03:41:00.000,n,254,3.96,3.6,4.68,13.5,84.6,1026.52,0,0,0,0,0.025253
2020/06/20 03:42:00.010,n,234,2.88,1.44,4.68,13.5,84.7,1026.52,0,0,0,0,0.030479
2020/06/20 03:43:00.009,n,261,4.68,3.6,5.4,13.5,84.6,1026.52,0,0,0,0,0.025253
2020/06/20 03:44:00.006,n,303,4.68,3.6,6.12,13.5,84.6,1026.42,0,0,0,0,0.031319
2020/06/20 03:45:00.003,n,265,4.32,3.96,4.68,13.5,84.7,1026.42,0,0,0,0,0.027885
2020/06/20 03:46:00.000,n,267,6.12,1.08,7.2,13.5,84.7,1026.42,0,0,0,0,0.030479
2020/06/20 03:47:00.000,n,101,0.36,0.36,0.72,13.5,84.7,1026.42,0,0,0,0,0.029602
2020/06/20 03:48:00.000,n,141,3.96,2.88,4.68,13.4,84.7,1026.42,0,0,0,0,0.027885
2020/06/20 03:49:00.000,n,189,2.88,1.8,3.6,13.4,84.8,1026.42,0,0,0,0,0.02697
2020/06/20 03:50:00.004,n,279,4.32,2.88,5.76,13.4,84.8,1026.42,0,0,0,0,0.028725
2020/06/20 03:51:00.001,n,171,2.88,2.52,3.24,13.4,85.1,1026.42,0,0,0,0,0.026093
2020/06/20 03:52:00.000,n,157,5.04,4.68,5.4,13.5,84.9,1026.42,0,0,0,0,0.024376
2020/06/20 03:53:00.011,n,97,1.08,0.36,1.8,13.4,84.9,1026.42,0,0,0,0,0.022621
2020/06/20 03:54:00.009,n,164,3.96,3.6,4.32,13.4,84.9,1026.42,0,0,0,0,0.025253
2020/06/20 03:55:00.000,n,108,1.8,1.44,2.16,13.4,84.9,1026.42,0,0,0,0,0.026093
2020/06/20 03:56:00.002,n,141,1.08,0.36,2.16,13.4,84.9,1026.42,0,0,0,0,0.027885
2020/06/20 03:57:00.000,n,187,3.6,2.88,3.96,13.4,84.9,1026.32,0,0,0,0,0.021744
2020/06/20 03:58:00.000,n,203,1.44,1.08,1.44,13.4,84.9,1026.32,0,0,0,0,0.023537
2020/06/20 03:59:00.000,n,210,3.6,2.88,3.96,13.4,85,1026.32,0,0,0,0,0.01915
2020/06/20 04:00:00.007,n,203,2.88,2.52,3.6,13.3,85.1,1026.32,0,0,0,0,0.021744
2020/06/20 04:01:00.005,n,157,4.32,3.6,4.32,13.3,85.1,1026.32,0,0,0,0,0.028763
2020/06/20 04:02:00.000,n,223,2.16,1.44,2.52,13.3,85.1,1026.32,0,0,0,0,0.033112
2020/06/20 04:03:00.012,n,183,4.32,2.88,5.04,13.3,85.1,1026.32,0,0,0,0,0.030479
2020/06/20 04:04:00.000,n,237,2.52,1.8,3.24,13.3,85.1,1026.32,0,0,0,0,0.023499
2020/06/20 04:05:00.000,n,202,1.08,0.72,1.44,13.3,85.1,1026.32,0,0,0,0,0.027008
2020/06/20 04:06:00.004,n,209,1.44,1.08,1.44,13.3,85.2,1026.32,0,0,0,0,0.029602
2020/06/20 04:07:00.001,n,305,2.52,2.16,2.88,13.3,85.2,1026.32,0,0,0,0,0.030479
2020/06/20 04:08:00.000,n,212,1.44,1.08,2.52,13.3,85.3,1026.32,0,0,0,0,0.033112
2020/06/20 04:09:00.000,n,282,3.24,2.88,3.96,13.3,85.3,1026.32,0,0,0,0,0.025253
2020/06/20 04:10:00.008,n,114,4.68,3.96,5.04,13.3,85.3,1026.32,0,0,0,0,0.029602
2020/06/20 04:11:00.005,n,176,1.44,0.72,2.16,13.3,85.4,1026.32,0,0,0,0,0.022659
2020/06/20 04:12:00.003,n,6,1.44,0.36,2.16,13.3,85.6,1026.32,0,0,0,0,0.030479
2020/06/20 04:13:00.000,n,150,1.08,0.36,2.52,13.3,85.5,1026.32,0,0,0,0,0.027847
2020/06/20 04:14:00.000,n,167,0.72,0.36,1.08,13.3,85.5,1026.32,0,0,0,0,0.025253
2020/06/20 04:15:00.000,n,139,0.36,0.36,0.72,13.3,85.5,1026.22,0,0,0,0,0.029602
2020/06/20 04:16:00.000,n,127,1.8,1.44,2.16,13.3,85.5,1026.22,0,0,0,0,0.022659
2020/06/20 04:17:00.004,n,191,1.8,1.44,2.16,13.3,85.4,1026.22,0,0,0,0,0.027008
2020/06/20 04:18:00.001,n,134,3.24,2.16,3.96,13.3,85.4,1026.22,0,0,0,0,0.027847
2020/06/20 04:19:00.000,n,137,2.52,2.16,2.88,13.3,85.3,1026.22,0,0,0,0,0.027008
2020/06/20 04:20:00.011,n,132,5.4,4.68,5.76,13.3,85.4,1026.22,0,0,0,0,0.027847
2020/06/20 04:21:00.008,n,164,4.68,4.32,5.04,13.3,85.3,1026.22,0,0,0,0,0.027847
2020/06/20 04:22:00.000,n,162,4.68,3.24,6.12,13.3,85.2,1026.22,0,0,0,0,0.026131
2020/06/20 04:23:00.000,n,160,7.92,7.56,8.28,13.3,85.2,1026.22,0,0,0,0,0.028763
2020/06/20 04:24:00.000,n,157,5.04,4.68,5.4,13.2,85.2,1026.22,0,0,0,0,0.023499
2020/06/20 04:25:00.000,n,162,8.28,7.56,9,13.2,85.2,1026.22,0,0,0,0,0.025253
2020/06/20 04:26:00.000,n,176,7.2,6.12,9.72,13.2,85.3,1026.32,0,0,0,0,0.027008
2020/06/20 04:27:00.009,n,194,7.56,6.84,7.92,13.2,85.3,1026.32,0,0,0,0,0.029602
2020/06/20 04:28:00.007,n,172,5.04,4.68,5.04,13.2,85.4,1026.32,0,0,0,0,0.021782
2020/06/20 04:29:00.004,n,159,3.6,1.8,4.32,13.2,85.4,1026.32,0,0,0,0,0.026131
2020/06/20 04:30:00.004,n,240,2.16,1.44,2.88,13.2,85.5,1026.32,0,0,0,0,0.026131
2020/06/20 04:31:00.002,n,338,2.16,1.8,2.88,13.2,85.9,1026.32,0,0,0,0,0.032234
2020/06/20 04:32:00.000,n,203,0.36,0,0.72,13.3,85.9,1026.32,0,0,0,0,0.023499
2020/06/20 04:33:00.000,n,166,1.8,1.08,2.16,13.3,85.6,1026.42,0,0,0,0,0.023499
2020/06/20 04:34:00.000,n,212,2.16,1.44,2.88,13.3,85.7,1026.42,0,0,0,0,0.031357
2020/06/20 04:35:00.000,n,196,3.24,2.52,3.6,13.3,85.5,1026.42,0,0,0,0,0.026131
2020/06/20 04:36:00.008,n,69,1.8,0.36,2.52,13.3,85.4,1026.42,0,0,0,0,0.031357
2020/06/20 04:37:00.006,n,164,1.8,1.08,2.16,13.3,85.6,1026.42,0,0,0,0,0.029602
2020/06/20 04:38:00.003,n,176,3.24,2.88,3.6,13.3,85.5,1026.42,0,0,0,0,0.027008
2020/06/20 04:39:00.016,n,179,4.68,2.88,6.48,13.3,85.2,1026.42,0,0,0,0,0.028763
2020/06/20 04:40:00.000,n,274,5.4,4.68,5.76,13.3,85.4,1026.42,0,0,0,0,0.026131
2020/06/20 04:41:00.000,n,246,2.88,2.52,3.24,13.3,85.2,1026.42,0,0,0,0,0.029602
2020/06/20 04:42:00.000,n,244,3.24,2.52,3.6,13.3,85.4,1026.42,0,0,0,0,0.031357
2020/06/20 04:43:00.006,n,265,5.4,4.32,6.48,13.3,85.2,1026.42,0,0,0,0,0.028763
2020/06/20 04:44:00.002,n,261,1.44,1.44,1.8,13.3,85.3,1026.42,0,0,0,0,0.027847
2020/06/20 04:45:00.001,n,272,5.04,4.68,5.76,13.3,85.3,1026.42,0,0,0,0,0.033112
2020/06/20 04:46:00.000,n,305,2.52,1.8,3.24,13.3,85.4,1026.42,0,0,0,0,0.029602
2020/06/20 04:47:00.011,n,264,3.24,2.88,3.96,13.3,85.4,1026.42,0,0,0,0,0.033112
2020/06/20 04:48:00.009,n,335,1.44,0.72,1.8,13.3,85.3,1026.42,0,0,0,0,0.032234
2020/06/20 04:49:00.000,n,241,4.32,3.96,4.68,13.3,85.3,1026.42,0,0,0,0,0.033112
2020/06/20 04:50:00.000,n,142,2.16,1.44,2.88,13.3,85.4,1026.42,0,0,0,0,0.030479
2020/06/20 04:51:00.000,n,262,3.6,2.88,4.32,13.4,85.3,1026.42,0,0,0,0,0.033112
2020/06/20 04:52:00.000,n,189,1.44,1.08,1.8,13.4,85.2,1026.42,0,0,0,0,0.031357
2020/06/20 04:53:00.000,n,294,0.72,0,0.72,13.4,85.4,1026.42,0,0,0,0,0.029602
2020/06/20 04:54:00.008,n,155,2.52,2.16,3.24,13.4,85.3,1026.42,0,0,0,0,0.033989
2020/06/20 04:55:00.006,n,145,1.8,1.08,2.16,13.4,85.1,1026.42,0,0,0,0,0.033989
2020/06/20 04:56:00.003,n,178,1.44,1.08,2.16,13.4,85.2,1026.42,0,0,0,0,0.036583